• In Uzbekistan
  • List of Countries
  • For 7 days
  • Water Temperature
  • Satellite Maps
  • Weather Map
  • Weather Widgets
  • user-avatar
    Login

    Hourly Weather Gold Coast

    Today, 25 March, Saturday

    Time Temperature Precipitation Wind Pressure Humidity
    00:00 +22°C° 0.2 mm 5 mps 758 mmHg 92%
    01:00 +22°C° 0.2 mm 5 mps 758 mmHg 92%
    02:00 +22°C° 0.1 mm 5 mps 758 mmHg 92%
    03:00 +22°C° 0.1 mm 5 mps 758 mmHg 93%
    04:00 +21°C° 0 mm 5 mps 757 mmHg 91%
    05:00 +22°C° 0 mm 5 mps 757 mmHg 90%
    06:00 +22°C° 0 mm 5 mps 758 mmHg 89%
    07:00 +22°C° 0 mm 5 mps 758 mmHg 88%
    08:00 +23°C° 0 mm 5 mps 758 mmHg 83%
    09:00 +26°C° 0 mm 5 mps 758 mmHg 77%
    10:00 +27°C° 0 mm 4 mps 758 mmHg 69%
    11:00 +28°C° 0 mm 4 mps 758 mmHg 69%
    12:00 +28°C° 0 mm 5 mps 758 mmHg 69%
    13:00 +28°C° 0 mm 5 mps 757 mmHg 69%
    14:00 +28°C° 0 mm 5 mps 757 mmHg 70%
    15:00 +28°C° 0 mm 4 mps 757 mmHg 71%
    16:00 +27°C° 0 mm 4 mps 757 mmHg 74%
    17:00 +26°C° 0 mm 4 mps 757 mmHg 79%
    18:00 +24°C° 0 mm 3 mps 757 mmHg 84%
    19:00 +22°C° 0 mm 3 mps 757 mmHg 90%
    20:00 +22°C° 0 mm 3 mps 758 mmHg 91%
    21:00 +21°C° 0 mm 3 mps 758 mmHg 92%
    22:00 +21°C° 0 mm 2 mps 758 mmHg 93%
    23:00 +21°C° 0 mm 2 mps 758 mmHg 94%

    Tomorrow, 26 March, Sunday

    Time Temperature Precipitation Wind Pressure Humidity
    00:00 +21°C° 0 mm 1 mps 757 mmHg 94%
    01:00 +21°C° 0 mm 1 mps 757 mmHg 94%
    02:00 +21°C° 0 mm 1 mps 757 mmHg 94%
    03:00 +21°C° 0 mm 1 mps 757 mmHg 95%
    04:00 +20°C° 0 mm 1 mps 757 mmHg 95%
    05:00 +21°C° 0 mm 1 mps 757 mmHg 92%
    06:00 +22°C° 0 mm 1 mps 757 mmHg 90%
    07:00 +24°C° 0 mm 1 mps 757 mmHg 87%
    08:00 +25°C° 0 mm 1 mps 757 mmHg 80%
    09:00 +27°C° 0 mm 2 mps 757 mmHg 73%
    10:00 +29°C° 0 mm 2 mps 757 mmHg 66%
    11:00 +30°C° 0 mm 2 mps 757 mmHg 63%
    12:00 +31°C° 0 mm 2 mps 756 mmHg 60%
    13:00 +32°C° 0 mm 2 mps 756 mmHg 58%
    14:00 +30°C° 0 mm 3 mps 756 mmHg 64%
    15:00 +29°C° 0 mm 3 mps 756 mmHg 71%
    16:00 +27°C° 0 mm 4 mps 755 mmHg 78%
    17:00 +26°C° 0 mm 3 mps 756 mmHg 81%
    18:00 +25°C° 0 mm 3 mps 756 mmHg 84%
    19:00 +24°C° 0 mm 2 mps 757 mmHg 87%
    20:00 +24°C° 0 mm 2 mps 757 mmHg 87%
    21:00 +24°C° 0 mm 2 mps 757 mmHg 88%
    22:00 +23°C° 0 mm 2 mps 758 mmHg 89%
    23:00 +23°C° 0 mm 2 mps 758 mmHg 90%

    Day after tomorrow, 27 March, Monday

    Time Temperature Precipitation Wind Pressure Humidity
    00:00 +23°C° 0 mm 2 mps 757 mmHg 91%
    01:00 +23°C° 0 mm 2 mps 757 mmHg 92%
    02:00 +23°C° 0 mm 2 mps 757 mmHg 92%
    03:00 +23°C° 0 mm 2 mps 757 mmHg 92%
    04:00 +23°C° 0 mm 2 mps 757 mmHg 92%
    05:00 +24°C° 0 mm 3 mps 757 mmHg 91%
    06:00 +24°C° 0 mm 3 mps 757 mmHg 89%
    07:00 +25°C° 0 mm 4 mps 758 mmHg 88%
    08:00 +26°C° 0.1 mm 4 mps 758 mmHg 83%
    09:00 +27°C° 0.1 mm 5 mps 758 mmHg 78%
    10:00 +28°C° 0.1 mm 5 mps 758 mmHg 73%
    11:00 +29°C° 0.1 mm 5 mps 758 mmHg 71%
    12:00 +29°C° 0.1 mm 5 mps 757 mmHg 70%
    13:00 +29°C° 0.1 mm 5 mps 757 mmHg 69%
    14:00 +29°C° 0 mm 5 mps 756 mmHg 71%
    15:00 +28°C° 0 mm 5 mps 756 mmHg 73%
    16:00 +28°C° 0 mm 5 mps 756 mmHg 74%
    17:00 +26°C° 0 mm 5 mps 756 mmHg 80%
    18:00 +25°C° 0 mm 4 mps 757 mmHg 85%
    19:00 +23°C° 0 mm 4 mps 757 mmHg 91%
    20:00 +23°C° 0 mm 4 mps 757 mmHg 91%
    21:00 +22°C° 0 mm 4 mps 757 mmHg 92%
    22:00 +22°C° 0 mm 3 mps 758 mmHg 93%
    23:00 +22°C° 0 mm 3 mps 757 mmHg 92%

    28 March, Tuesday

    Time Temperature Precipitation Wind Pressure Humidity
    00:00 +22°C° 0 mm 3 mps 757 mmHg 92%
    01:00 +22°C° 0 mm 3 mps 757 mmHg 91%
    02:00 +22°C° 0 mm 3 mps 756 mmHg 91%
    03:00 +22°C° 0 mm 3 mps 756 mmHg 92%
    04:00 +21°C° 0 mm 2 mps 756 mmHg 92%
    05:00 +23°C° 0 mm 2 mps 756 mmHg 91%
    06:00 +24°C° 0 mm 2 mps 757 mmHg 89%
    07:00 +25°C° 0 mm 2 mps 757 mmHg 88%
    08:00 +26°C° 0 mm 3 mps 757 mmHg 82%
    09:00 +27°C° 0 mm 3 mps 758 mmHg 75%
    10:00 +28°C° 0 mm 3 mps 758 mmHg 69%
    11:00 +29°C° 0 mm 4 mps 757 mmHg 67%
    12:00 +29°C° 0 mm 4 mps 757 mmHg 66%
    13:00 +30°C° 0 mm 4 mps 756 mmHg 65%
    14:00 +29°C° 0 mm 4 mps 756 mmHg 67%
    15:00 +29°C° 0 mm 4 mps 756 mmHg 69%
    16:00 +28°C° 0 mm 5 mps 756 mmHg 72%
    17:00 +27°C° 0 mm 4 mps 756 mmHg 78%
    18:00 +25°C° 0 mm 4 mps 757 mmHg 85%
    19:00 +23°C° 0 mm 4 mps 757 mmHg 91%
    20:00 +22°C° 0 mm 4 mps 758 mmHg 92%
    21:00 +22°C° 0 mm 4 mps 758 mmHg 93%
    22:00 +22°C° 0 mm 4 mps 758 mmHg 94%
    23:00 +22°C° 0 mm 3 mps 758 mmHg 94%

    29 March, Wednesday

    Time Temperature Precipitation Wind Pressure Humidity
    00:00 +21°C° 0 mm 3 mps 758 mmHg 94%
    01:00 +21°C° 0 mm 3 mps 757 mmHg 94%
    02:00 +21°C° 0 mm 3 mps 757 mmHg 94%
    03:00 +21°C° 0 mm 3 mps 757 mmHg 94%
    04:00 +20°C° 0 mm 3 mps 757 mmHg 94%
    05:00 +21°C° 0 mm 3 mps 757 mmHg 92%
    06:00 +22°C° 0 mm 4 mps 758 mmHg 90%
    07:00 +23°C° 0 mm 4 mps 758 mmHg 88%
    08:00 +25°C° 0 mm 4 mps 758 mmHg 82%
    09:00 +27°C° 0 mm 4 mps 759 mmHg 76%
    10:00 +28°C° 0 mm 4 mps 759 mmHg 69%
    11:00 +28°C° 0 mm 4 mps 758 mmHg 67%
    12:00 +29°C° 0 mm 5 mps 758 mmHg 65%
    13:00 +29°C° 0 mm 5 mps 757 mmHg 63%
    14:00 +29°C° 0 mm 5 mps 757 mmHg 66%
    15:00 +28°C° 0 mm 5 mps 757 mmHg 68%
    16:00 +28°C° 0 mm 5 mps 757 mmHg 71%
    17:00 +26°C° 0 mm 4 mps 757 mmHg 77%
    18:00 +25°C° 0 mm 4 mps 757 mmHg 82%
    19:00 +23°C° 0 mm 4 mps 758 mmHg 88%
    20:00 +23°C° 0 mm 4 mps 758 mmHg 88%
    21:00 +23°C° 0 mm 4 mps 758 mmHg 88%
    22:00 +23°C° 0 mm 4 mps 758 mmHg 89%
    23:00 +23°C° 0 mm 4 mps 757 mmHg 89%

    30 March, Thursday

    Time Temperature Precipitation Wind Pressure Humidity
    00:00 +23°C° 0 mm 4 mps 757 mmHg 89%
    01:00 +23°C° 0 mm 4 mps 756 mmHg 89%
    02:00 +23°C° 0.1 mm 4 mps 756 mmHg 90%
    03:00 +23°C° 0.1 mm 4 mps 756 mmHg 90%
    04:00 +23°C° 0.1 mm 4 mps 755 mmHg 91%
    05:00 +23°C° 0.8 mm 5 mps 756 mmHg 92%
    06:00 +23°C° 0.8 mm 5 mps 756 mmHg 93%
    07:00 +23°C° 0.8 mm 5 mps 756 mmHg 94%
    08:00 +23°C° 3.1 mm 5 mps 756 mmHg 95%
    09:00 +23°C° 3.1 mm 5 mps 756 mmHg 96%
    10:00 +23°C° 3.1 mm 5 mps 756 mmHg 96%
    11:00 +25°C° 3.5 mm 5 mps 755 mmHg 95%
    12:00 +26°C° 3.5 mm 5 mps 754 mmHg 94%
    13:00 +26°C° 3.5 mm 5 mps 754 mmHg 92%
    14:00 +26°C° 3.3 mm 5 mps 753 mmHg 94%
    15:00 +26°C° 3.3 mm 5 mps 753 mmHg 95%
    16:00 +25°C° 3.3 mm 5 mps 753 mmHg 96%
    17:00 +25°C° 2.4 mm 5 mps 753 mmHg 96%
    18:00 +25°C° 2.4 mm 5 mps 753 mmHg 96%
    19:00 +25°C° 2.4 mm 5 mps 753 mmHg 97%
    20:00 +25°C° 2.6 mm 5 mps 753 mmHg 96%
    21:00 +25°C° 2.6 mm 5 mps 753 mmHg 96%
    22:00 +25°C° 2.6 mm 5 mps 753 mmHg 96%
    23:00 +25°C° 1.7 mm 4 mps 753 mmHg 96%
    Show more